Starlink 32925

operational
NORAD ID: 63091 Int'l Des: 2025-037 Owner: SPXS Country: US Constellation: starlink
LEOCIRCULAR

About Starlink 32925

Description loading...

Live Position

Loading 3D Globe...

Upcoming Passes

Altitude History

Altitude vs Time

uPlot chart will show altitude changes over time

Two-Line Element Set

1 63091U 25037Q 25259.22911661 .00002896 00000-0 25034-3 0 9999
2 63091 70.0010 74.1687 0002961 268.8641 91.2179 14.98337246 32411
Epoch: Sep 16, 2025 • Age: 8 hours

Current Status

Altitude 594.9 km
Velocity 7.56 km/s
Sub-Earth Point -67.55°S, 179.1°E
Launch Date Feb 23, 2025
Age 0.5 years
Type internet

Technical Details

Classification Payload
Mass 730.00 kg
Dry Mass 700.00 kg
Total Mass 730.00 kg
Length 0.30 m
Diameter 4.10 m
Span 29.00 m
Shape Box + pan
Manufacturer SPXS
Bus Type Starlink V2M
Phase Status In Orbit
Owner/State SPXS/US

Large Constellations

Loading constellations...